Flag for Germany Weather past 2 weeks in Neuburg an der Donau, Bavaria, Germany

Now
66 °F

Mild.


Feels Like: 66 °F
Forecast: 58 / 86 °F
Wind: 2 mph from Northeast

Location: Neuburg / Donau

Current Time: Aug 4, 2015 at 1:31:42 AM

Latest Report: Aug 4, 2015 at 12:20 AM


Visibility: N/A

Pressure: 30.04 "Hg

Humidity: 73%

Dew point: 57 °F

Location of Neuburg an der DonauLocation

Historic Weather in Neuburg an der Donau — Graph

°F

Neuburg an der Donau temperature yesterday

Maximum temperature yesterday: 84 °F (at 4:20 PM)
Minimum temperature yesterday: 55 °F (at 4:20 AM)
Average temperature yesterday: 71 °F

Past Weeks' High & Low Weather Summary

 TemperatureHumidityPressure
High95 °F (Jul 22, 3:20 PM)100% (Jul 30, 5:20 AM)30.12 "Hg (Jul 30, 5:20 AM)
Low45 °F (Jul 30, 5:20 AM)22% (Jul 22, 5:20 PM)29.71 "Hg (Jul 25, 3:20 AM)
Average68 °F61%29.96 "Hg
* Reported Jul 20 12:20 AM — Aug 4 12:20 AM, Neuburg an der Donau, Weather by CustomWeather, © 2015

Note: Actual official high and low records may vary slightly from our data, if they occured in-between our weather recording intervals... More about our weather records

Advertising

Neuburg an der Donau weather history for previous 24 hours

 ConditionsComfort  
Time TempWeatherWind HumidityBarometerVisibility
12:20 AM
Tue, Aug 4
66 °FMild.2 mph73%30.04 "HgN/A
11:20 PM
Mon, Aug 3
66 °FMild.2 mph73%30.04 "HgN/A
10:20 PM72 °FMild.5 mph61%30.04 "HgN/A
9:20 PM75 °FMild.5 mph54%30.04 "HgN/A
8:20 PM81 °FPleasantly warm.5 mph39%30.04 "HgN/A
7:20 PM84 °FPleasantly warm.6 mph31%30.04 "HgN/A
6:20 PM84 °FPleasantly warm.6 mph29%30.04 "HgN/A
5:20 PM84 °FPassing clouds.5 mph27%30.04 "HgN/A
4:20 PM84 °FPassing clouds.5 mph31%30.07 "HgN/A
3:20 PM82 °FPassing clouds.6 mph32%30.07 "HgN/A
2:20 PM82 °FPassing clouds.7 mph35%30.09 "HgN/A
1:20 PM79 °FPassing clouds.7 mph39%30.09 "HgN/A
12:20 PM77 °FPassing clouds.7 mph44%30.12 "HgN/A
11:20 AM75 °FPassing clouds.7 mph47%30.12 "HgN/A
10:20 AM72 °FPassing clouds.6 mph61%30.12 "HgN/A
9:20 AM66 °FPassing clouds.3 mph73%30.12 "HgN/A
8:20 AM63 °FPassing clouds.3 mph83%30.12 "HgN/A
7:20 AM59 °FPassing clouds.5 mph88%30.12 "HgN/A
6:20 AM57 °FPassing clouds.5 mph88%30.09 "HgN/A
5:20 AM55 °FCool.2 mph94%30.09 "HgN/A
4:20 AM55 °FCool.3 mph94%30.09 "HgN/A
3:20 AM59 °FCool.5 mph82%30.09 "HgN/A
2:20 AM59 °FCool.2 mph88%30.09 "HgN/A
1:20 AM61 °FCool.3 mph83%30.09 "HgN/A
Weather by CustomWeather, © 2015

See weather overviewHow to use our weather pages